Regional Weather Roundup
Issued by NWS Boston, MA

Current Version | Previous Version | Text Only | Print | Product List | Glossary On
Versions: 1 2 3 4 5 6 7 8 9 10 11 12 13 14 15 16 17 18 19 20 21 22 23 24 25 26 27 28 29 30 31 32 33 34 35 36
000
ASUS41 KBOX 230010
RWRBOX

REGIONAL WEATHER ROUNDUP
NATIONAL WEATHER SERVICE TAUNTON MA
800 PM EDT WED OCT 22 2014

NOTE:  "FAIR" INDICATES FEW OR NO CLOUDS BELOW 12,000 FEET WITH NO
SIGNIFICANT WEATHER AND/OR OBSTRUCTIONS TO VISIBILITY.  THE FOLLOWING
OBSERVATION LOCATIONS DO NOT REPORT PRESENT WEATHER...PROVINCETOWN...
SMITHFIELD...BLOCK ISLAND...KEENE...AND OXFORD.

MAZALL-230100-
EASTERN MASSACHUSETTS

CITY           SKY/WX    TMP DP  RH WIND       PRES   REMARKS
BOSTON         RAIN      52  50  93 NE32G45   29.85F FOG
6HR MIN TEMP:  50; 6HR MAX TEMP:  52; 6HR PCP:  0.08;

BEVERLY        LGT RAIN  51  49  92 NE26G44   29.88F FOG
LAWRENCE       LGT RAIN  50  47  89 NE35G48   29.91F FOG
BEDFORD        LGT RAIN  50  48  93 NE24G35   29.88S FOG
BLUE HILL        N/A     50  50 100 NE30G59   29.80F
NORWOOD        LGT RAIN  53  51  93 NE20G39   29.83F FOG
MARSHFIELD     NOT AVBL
PLYMOUTH       CLOUDY    55  54  96 NE25G40   29.77F FOG
TAUNTON        LGT RAIN  55  53  93 NE9G29    29.75F FOG
NEW BEDFORD    LGT RAIN  56  55  97 NE18G35   29.70F
$$

MAZALL-230100-
CAPE COD AND THE ISLANDS

CITY           SKY/WX    TMP DP  RH WIND       PRES   REMARKS
FALMOUTH       CLOUDY    57  55  94 NE33G51   29.70F FOG
HYANNIS        LGT RAIN  58  56  93 NE28G41   29.68F FOG
CHATHAM        CLOUDY    57  57 100 NE20G37   29.72F FOG
PROVINCETOWN   CLOUDY    55  54  94 NE25G40   29.78F
NANTUCKET      CLOUDY    60  59  96 NE20G33   29.65F
MARTHAS VNYRD  RAIN      59  58  96 NE24G37   29.64F FOG
$$

MAZALL-230100-
CENTRAL AND WESTERN MASSACHUSETTS

CITY           SKY/WX    TMP DP  RH WIND       PRES   REMARKS
WORCESTER      LGT RAIN  45  44  97 NE21G32   29.85F FOG
6HR MIN TEMP:  45; 6HR MAX TEMP:  47; 6HR PCP:  0.20;

FITCHBURG      LGT RAIN  48  45  89 N13G25    29.92F FOG
ORANGE         CLOUDY    48  45  89 N21G29    29.91F
SPRINGFIELD    CLOUDY    50  45  81 NE20G26   29.87F
WESTFIELD      LGT RAIN  50  47  89 N20G29    29.87F FOG
NORTH ADAMS    LGT RAIN  48  47  96 CALM      29.95F
PITTSFIELD     CLOUDY    48  46  93 NE10G17   29.91F
$$

RIZALL-230100-
RHODE ISLAND

CITY           SKY/WX    TMP DP  RH WIND       PRES   REMARKS
PROVIDENCE     LGT RAIN  53  51  93 N26G32    29.74F
6HR MIN TEMP:  51; 6HR MAX TEMP:  55; 6HR PCP:  0.16;

NEWPORT        LGT RAIN  57  54  89 N18G33    29.67F
BLOCK ISLAND   CLOUDY    54  50  87 N22G35    29.61F
SMITHFIELD     CLOUDY    52  43  71 NE26G35   29.78F
WESTERLY       RAIN      52  50  93 N21G32    29.66F FOG
$$

CTZALL-230100-
CONNECTICUT

CITY           SKY/WX    TMP DP  RH WIND       PRES   REMARKS
BRADLEY INTL   LGT RAIN  51  46  83 N20G30    29.84F
6HR MIN TEMP:  51; 6HR MAX TEMP:  53; 6HR PCP:  0.09;

HARTFORD       RAIN      50  46  86 N17G29    29.82F
BRIDGEPORT     LGT RAIN  52  48  86 N29G40    29.73F
DANBURY        RAIN      50  45  83 N16G23    29.83F
GROTON         LGT RAIN  50  49  96 N25G36    29.67F
NEW HAVEN      CLOUDY    53  47  79 N31G43    29.74F
CHESTER        NOT AVBL
MERIDEN        LGT RAIN  50  46  86 N10G28    29.80F
WILLIMANTIC    LGT RAIN  50  46  86 N23G33    29.79F
OXFORD         LGT RAIN  48  43  81 NE21G38   29.80F FOG
$$

MEZ002-015-021-024-NHZ003-005-008-011-012-014-VTZ005-008-230100-
NORTHERN NEW ENGLAND

CITY           SKY/WX    TMP DP  RH WIND       PRES   REMARKS
PORTLAND ME    CLOUDY    50  46  86 NE20G32   30.00F
6HR MIN TEMP:  49; 6HR MAX TEMP:  50; 6HR PCP:  0.15;

BANGOR ME      LGT RAIN  46  44  93 NE14      30.16F FOG
CONCORD NH     CLOUDY    47  44  90 N10G22    29.97F
MANCHESTER NH  DRIZZLE   48  44  86 N16G30    29.95S
NASHUA NH      LGT RAIN  48  46  93 NE10G18   29.95S FOG
PORTSMOUTH NH  LGT RAIN  49  46  92 NE20G35   29.93F FOG
JAFFREY NH     LGT RAIN  45  44  97 N9G16     29.94F FOG
KEENE NH       CLOUDY    48  39  71 N15       29.95F
BURLINGTON VT  LGT RAIN  52  41  66 N10       30.12F
MT. WASHINGTON NOT AVBL
$$

NYZ052-076-230100-
EASTERN NEW YORK

CITY           SKY/WX    TMP DP  RH WIND       PRES   REMARKS
ALBANY         LGT RAIN  51  45  79 N10G28    29.99F
6HR MIN TEMP:  50; 6HR MAX TEMP:  54; 6HR PCP:  0.02;

NEW YORK CITY  LGT RAIN  53  49  86 N17G26    29.77F
6HR MIN TEMP:  52; 6HR MAX TEMP:  59; 6HR PCP:  0.35;

$$

ANZALL-230100-
MARINE OBSERVATIONS

STATION/POSITION TIME  TEMP    WIND        PRES    VSBY  WAVE
                       AIR SEA DIR/SP/G                  HT/PER
                 (UTC) (F)     (DEG/KT/KT) (MB)    (MI)  (FT/S)
BOSTON BUOY      NOT AVBL
BUZZARDS BAY     NOT AVBL
NANTUCKET SOUND  NOT AVBL
MASS BAY-STELLWA NOT AVBL
ISLE OF SHOALS   NOT AVBL
S OF BLOCK IS    NOT AVBL
$$

......................KEY.........................
  SKY/WX - SKY CONDITION/PRESENT WEATHER
  TMP    - TEMPERATURE IN FAHRENHEIT
  DWPT   - DEWPOINT IN FAHRENHEIT
  RH     - RELATIVE HUMIDITY IN PERCENT
  WIND   - DIRECTION AND SPEED IN MPH
  PRES   - MEAN SEA LEVEL PRESSURE IN INCHES OF HG
  WCI    - WIND CHILL INDEX
  VSB    - VISIBILITY IN MILES
  HX     - HEAT INDEX
  TC     - TEMPERATURE IN CELSIUS
  VRB    - VARIABLE WIND DIRECTION
  N/A    - NOT AVAILABLE



USA.gov is the U.S. government's official web portal to all federal, state and local government web resources and services.